[[{"header":{"parameterUnit":"m.s-1","parameterCategory":1,"la1":30.2991,"la2":30.254,"lo1":-89.0895,"lo2":-89.0444,"dy":0.0017,"dx":0.0017,"nx":28,"ny":28,"refTime":"2025-11-15T09:00:00:Z","depth":0,"parameterNumber":2,"parameterNumberName":"U-component_of_WINDS"},"data":[0,0,0,0,0,0,0,0,0,0,0,0,0,0,0,0,0,0,0,0,0,0,0,0,0,0,0,0,0,0,0,0,0,0,0,0,0,0,0,0,0,0,0,0,0,0,0,0,0,0,0,0,0,0,0,0,0,0,3.5532,3.5533,0,3.5624,3.5625,3.5626,3.5592,3.5589,3.5587,3.5585,3.5678,3.5682,3.5687,0,0,0,0,0,0,0,0,0,0,0,0,0,3.5323,3.5327,3.5532,3.5533,3.5534,3.5624,3.5625,3.5626,3.5592,3.5589,3.5587,3.5584,3.5676,3.5682,3.5687,0,0,0,0,0,0,0,0,0,0,0,0,0,3.5414,3.5329,3.5531,3.5528,3.5528,3.5624,3.5625,3.5627,3.5592,3.5589,3.5586,3.5583,3.5675,3.5681,3.5688,3.5792,0,0,3.5708,3.5711,0,0,0,0,0,0,0,0,3.5409,3.5422,3.5527,3.5528,3.5529,3.5593,3.5586,3.5682,3.5593,3.5568,3.5585,3.5582,3.5652,3.566,3.5685,3.5796,3.58,3.5709,3.5713,3.5715,3.5717,0,0,0,0,0,0,0,3.5403,3.5418,3.5568,3.5529,3.553,3.5521,3.553,3.5604,3.5626,3.557,3.5568,3.5579,3.5652,3.5678,3.5686,3.5801,3.5708,3.5714,3.5718,3.5721,3.6002,3.6005,0,0,0,0,0,0,3.5397,3.5413,3.5565,3.5571,3.546,3.5527,3.5538,3.5576,3.5626,3.563,3.5582,3.5577,3.5668,3.5679,3.569,3.5813,3.5715,3.5722,3.5725,3.5998,3.6003,3.6006,0,0,0,0,0,0,3.5392,3.5411,3.5561,3.5491,3.551,3.5534,3.5577,3.5579,3.5605,3.5635,3.5638,3.5605,3.5666,3.568,3.5766,3.5816,3.5725,3.5731,3.5994,3.6,3.6004,3.6062,0,0,0,0,0,0,3.5387,3.5409,3.5449,3.5493,3.5514,3.5637,3.558,3.5583,3.5617,3.5612,3.5657,3.5661,3.5665,3.5757,3.5773,3.5824,3.5736,3.599,3.5997,3.6003,3.6056,3.6069,3.608,0,0,0,0,0,3.5379,3.5462,3.5452,3.547,3.5564,3.564,3.5652,3.5655,3.5621,3.5661,3.568,3.566,3.5809,3.5766,3.5784,3.5837,3.5987,3.5995,3.6002,3.6051,3.6066,3.608,0,0,0,0,0,0,3.5422,3.5467,3.5456,3.5555,3.5595,3.5634,3.5685,3.5672,3.5721,3.5714,3.5715,3.5726,3.5814,3.5835,3.5786,3.594,3.5892,3.5904,3.5923,3.5938,3.595,3.5942,3.5741,0,0,0,0,0,3.5444,3.5502,3.5538,3.5622,3.5642,3.5661,3.5694,3.5693,3.5733,3.5749,3.5774,3.5813,3.5869,3.5905,3.5958,3.606,3.6068,3.6105,3.6117,3.6127,3.6136,3.6191,3.6207,3.6032,3.6032,3.6032,0,0,3.5488,3.552,3.5556,3.5632,3.5662,3.5721,3.5674,3.574,3.5783,3.5759,3.5841,3.5861,3.5905,3.5999,3.6042,3.6019,3.6187,3.6137,3.6145,3.6149,3.6201,3.6217,3.6232,3.6037,3.6036,3.6036,0,0,3.5598,3.5629,3.5702,3.5733,3.578,3.5791,3.5809,3.5851,3.5864,3.5947,3.5929,3.5982,3.6078,3.6109,3.6138,3.6262,3.6244,3.6279,3.634,3.6393,3.6407,3.6419,3.6461,3.6477,3.6289,3.6289,3.6289,0,3.5646,3.5736,3.574,3.5807,3.584,3.5822,3.5895,3.5925,3.5986,3.6009,3.5983,3.6103,3.6131,3.6232,3.6262,3.6287,3.6306,3.6273,3.6405,3.6417,3.6429,3.6469,3.6485,3.6293,3.6292,3.6292,3.6292,0,3.5793,3.5855,3.5909,3.5969,3.6008,3.6078,3.6092,3.6131,3.6128,3.6142,3.6227,3.6261,3.6319,3.6344,3.6341,3.6445,3.6429,3.6404,3.6356,3.6449,3.6487,3.6502,3.6298,3.6297,3.6296,3.6295,0,0,3.593,3.5993,3.6012,3.6039,3.609,3.6138,3.6207,3.6265,3.6298,3.6342,3.6398,3.6481,3.6458,3.6491,3.6492,3.6539,3.6632,3.6508,3.6509,3.6528,3.6747,3.6763,3.6781,3.6623,3.6626,3.6628,3.6742,0,3.6043,3.6164,3.617,3.628,3.6337,3.6321,3.6381,3.6419,3.6434,3.6485,3.6502,3.656,3.6527,3.6546,3.6592,3.6611,3.6676,3.6604,3.6673,3.6676,3.666,3.6801,3.6819,3.6925,3.6758,3.676,3.6762,0,3.6189,3.6238,3.6354,3.6396,3.642,3.6474,3.6528,3.6577,3.6619,3.6627,3.6665,3.6659,3.6728,3.668,3.6775,3.6726,3.6755,3.6769,3.6774,3.6778,3.6722,3.6807,3.6959,3.6974,3.6786,3.6784,3.6782,0,3.6275,3.637,3.6451,3.6475,3.6527,3.6565,3.6589,3.6628,3.6662,3.671,3.6732,3.6787,3.6816,3.6859,3.6867,3.6832,3.6963,3.6915,3.697,3.6969,3.6995,3.6993,3.7152,3.7019,3.7019,3.7019,3.7018,0,3.6398,3.6469,3.649,3.654,3.6619,3.6626,3.6703,3.6724,3.6759,3.6812,3.6803,3.6852,3.6862,3.6914,3.6921,3.6998,3.7012,3.702,3.702,3.7019,3.7018,3.7036,3.7028,3.7023,3.7022,3.7021,3.702,0,3.6506,3.6524,3.6611,3.6654,3.6666,3.6722,3.6758,3.6806,3.6821,3.6888,3.6904,3.6928,3.6989,3.7003,3.7074,3.708,3.717,3.7165,3.7156,3.7154,3.7207,3.7201,3.7381,3.7404,3.7259,3.726,3.7262,0,3.6582,3.6636,3.6686,3.6721,3.6746,3.6803,3.6839,3.6848,3.6885,3.6938,3.6979,3.7038,3.7086,3.7183,3.7206,3.7261,3.7255,3.7315,3.7263,3.726,3.7253,3.7249,3.7253,3.7324,3.7325,3.7326,3.7327,0,3.6715,3.6721,3.6773,3.6829,3.6872,3.6916,3.6957,3.6987,3.7002,3.7044,3.7106,3.7144,3.7217,3.7276,3.7331,3.7354,3.7343,3.7344,3.7359,3.7357,3.7348,3.7351,3.7179,3.7339,3.7338,3.7337,3.7336,3.7336,3.6807,3.6854,3.6896,3.6954,3.6988,3.7027,3.7073,3.7096,3.7148,3.7208,3.7211,3.7278,3.7319,3.7392,3.7419,3.7471,3.7453,3.7475,3.748,3.7485,3.7489,3.7343,3.7482,3.7482,3.7481,3.7481,3.7481,0,3.6936,3.6963,3.7017,3.7077,3.7122,3.711,3.7156,3.7195,3.7254,3.7294,3.7342,3.7413,3.747,3.7499,3.7555,3.7591,3.7587,3.7605,3.7601,3.7606,3.7503,3.7483,3.7608,3.7607,3.7607,3.7607,3.7607,3.7607,3.7009,3.7087,3.7099,3.7194,3.722,3.7286,3.7313,3.735,3.7381,3.7461,3.7509,3.7528,3.7563,3.7622,3.7674,3.7681,3.7701,3.7721,3.7725,3.7627,3.7614,3.7601,3.7583,3.7726,3.7726,3.7824,3.7824,3.7825]},{"header":{"parameterUnit":"m.s-1","parameterCategory":1,"la1":30.2991,"la2":30.254,"lo1":-89.0895,"lo2":-89.0444,"dy":0.0017,"dx":0.0017,"nx":28,"ny":28,"refTime":"2025-11-15T09:00:00:Z","depth":0,"parameterNumber":3,"parameterNumberName":"V-component_of_WINDS"},"data":[0,0,0,0,0,0,0,0,0,0,0,0,0,0,0,0,0,0,0,0,0,0,0,0,0,0,0,0,0,0,0,0,0,0,0,0,0,0,0,0,0,0,0,0,0,0,0,0,0,0,0,0,0,0,0,0,0,0,1.7775,1.7776,0,1.7857,1.7858,1.7859,1.7878,1.7877,1.7877,1.7876,1.796,1.7963,1.7966,0,0,0,0,0,0,0,0,0,0,0,0,0,1.7632,1.7635,1.7775,1.7776,1.7777,1.7857,1.7858,1.786,1.7878,1.7877,1.7876,1.7876,1.7959,1.7962,1.7966,0,0,0,0,0,0,0,0,0,0,0,0,0,1.7702,1.7635,1.7775,1.7796,1.7798,1.7857,1.7858,1.786,1.7878,1.7877,1.7876,1.7875,1.7958,1.7962,1.7966,1.801,0,0,1.7979,1.7981,0,0,0,0,0,0,0,0,1.7698,1.7707,1.7792,1.7794,1.7797,1.7856,1.7839,1.791,1.7878,1.7848,1.7876,1.7875,1.7926,1.7933,1.795,1.8014,1.8017,1.7979,1.7982,1.7984,1.7985,0,0,0,0,0,0,0,1.7693,1.7704,1.7807,1.7793,1.7796,1.7801,1.781,1.7852,1.7891,1.785,1.7852,1.7861,1.7928,1.7946,1.7953,1.8018,1.7979,1.7983,1.7986,1.7987,1.8121,1.8122,0,0,0,0,0,0,1.7685,1.77,1.7805,1.781,1.7745,1.7804,1.7814,1.7838,1.7891,1.7898,1.7862,1.7862,1.794,1.7948,1.7956,1.801,1.7984,1.7988,1.799,1.812,1.8121,1.8122,0,0,0,0,0,0,1.7682,1.7694,1.7802,1.7755,1.7769,1.7807,1.7835,1.784,1.7859,1.7899,1.7906,1.7874,1.7939,1.795,1.7996,1.8013,1.7989,1.7993,1.8118,1.812,1.8122,1.8119,0,0,0,0,0,0,1.7678,1.7693,1.771,1.7756,1.7772,1.7841,1.7836,1.7843,1.7866,1.7867,1.7913,1.7919,1.7939,1.799,1.8,1.8018,1.7997,1.8117,1.8119,1.8121,1.8117,1.812,1.8122,0,0,0,0,0,1.7672,1.7706,1.7711,1.7723,1.7794,1.7842,1.7851,1.7874,1.7868,1.7885,1.7911,1.7918,1.8009,1.7994,1.8006,1.8026,1.8116,1.8119,1.8121,1.8116,1.812,1.8122,0,0,0,0,0,0,1.7661,1.7712,1.7718,1.7768,1.78,1.7845,1.7868,1.7876,1.7912,1.7911,1.7937,1.7947,1.7992,1.8013,1.7996,1.807,1.8062,1.8067,1.8055,1.8058,1.806,1.8055,1.8,0,0,0,0,0,1.7665,1.7699,1.7742,1.7781,1.7797,1.783,1.7851,1.7866,1.7901,1.7915,1.7944,1.7977,1.8013,1.8037,1.8072,1.812,1.813,1.814,1.8142,1.8144,1.8148,1.8174,1.8179,1.813,1.813,1.813,0,0,1.7672,1.7704,1.7724,1.778,1.7807,1.7842,1.7841,1.7879,1.7905,1.792,1.7966,1.7988,1.8027,1.8075,1.8097,1.8094,1.8163,1.8147,1.8148,1.8151,1.8177,1.8182,1.8186,1.8131,1.8131,1.8131,0,0,1.7703,1.7731,1.7767,1.7794,1.7835,1.7856,1.7864,1.7908,1.7923,1.7969,1.7981,1.8013,1.8075,1.8102,1.8124,1.8164,1.8172,1.8175,1.8188,1.8213,1.8217,1.8221,1.8236,1.8241,1.8179,1.8179,1.8179,0,1.7707,1.7761,1.7784,1.7821,1.7845,1.786,1.7897,1.7921,1.7972,1.7988,1.7984,1.8062,1.8089,1.8143,1.8152,1.8169,1.818,1.8171,1.8215,1.8219,1.8222,1.8237,1.8242,1.8179,1.8179,1.8179,1.8179,0,1.7764,1.7801,1.7825,1.7873,1.79,1.7936,1.7964,1.7988,1.8,1.8021,1.8068,1.8101,1.8143,1.8157,1.8169,1.8212,1.8209,1.821,1.8202,1.8227,1.8241,1.8246,1.8179,1.8179,1.8179,1.8179,0,0,1.7792,1.7852,1.7861,1.7882,1.7928,1.7957,1.7994,1.8035,1.8055,1.8089,1.8121,1.8172,1.8173,1.8197,1.8212,1.8235,1.8265,1.8233,1.8234,1.8238,1.8315,1.8315,1.8321,1.827,1.8271,1.8272,1.8312,0,1.783,1.7896,1.7917,1.7973,1.8007,1.8021,1.8053,1.8085,1.8105,1.8137,1.816,1.8196,1.8194,1.8209,1.8232,1.8256,1.8281,1.8254,1.8299,1.8301,1.829,1.8328,1.8329,1.8365,1.8317,1.8318,1.8319,0,1.7883,1.7917,1.7976,1.8017,1.8032,1.8061,1.81,1.8131,1.8166,1.8179,1.8207,1.822,1.8258,1.8247,1.8301,1.8282,1.8301,1.8316,1.8318,1.8324,1.8312,1.8336,1.8377,1.8382,1.8328,1.8327,1.8326,0,1.7898,1.7959,1.8002,1.802,1.8069,1.8089,1.811,1.8144,1.8168,1.8202,1.8218,1.8256,1.8277,1.8306,1.8328,1.8319,1.8379,1.8371,1.8392,1.8391,1.8405,1.8404,1.845,1.8416,1.8416,1.8416,1.8416,0,1.7938,1.7973,1.801,1.8036,1.8076,1.81,1.8139,1.816,1.8191,1.8222,1.8236,1.8264,1.8292,1.8324,1.8342,1.8383,1.8393,1.8404,1.8409,1.8404,1.8402,1.8418,1.8416,1.8417,1.8417,1.8417,1.8416,0,1.7962,1.7988,1.8036,1.8077,1.8089,1.8116,1.8152,1.8178,1.8199,1.8238,1.8248,1.8281,1.8319,1.8344,1.8393,1.8405,1.845,1.8454,1.8439,1.8441,1.846,1.8458,1.8519,1.8528,1.8487,1.8487,1.8488,0,1.7986,1.8014,1.8059,1.808,1.8102,1.8136,1.816,1.8184,1.8208,1.825,1.8271,1.8311,1.8344,1.8404,1.8432,1.8469,1.8474,1.8493,1.848,1.8474,1.8475,1.8473,1.8476,1.8495,1.8495,1.8496,1.8496,0,1.8027,1.8038,1.8072,1.811,1.8138,1.817,1.8201,1.8218,1.8247,1.8274,1.8313,1.8338,1.8388,1.8427,1.8467,1.8488,1.8497,1.8499,1.8506,1.8502,1.8492,1.8498,1.8445,1.8498,1.8498,1.8498,1.8498,1.8498,1.8052,1.8078,1.8113,1.815,1.8176,1.8205,1.8231,1.8255,1.8289,1.8331,1.8343,1.8384,1.8418,1.8473,1.8494,1.8527,1.8525,1.8535,1.8537,1.8539,1.854,1.8486,1.8534,1.8534,1.8534,1.8534,1.8534,0,1.8094,1.8117,1.8151,1.8195,1.8224,1.8229,1.8264,1.8288,1.8324,1.8355,1.8387,1.8432,1.847,1.85,1.8538,1.8558,1.8563,1.8568,1.8567,1.8572,1.8539,1.853,1.8563,1.8563,1.8563,1.8563,1.8563,1.8563,1.8119,1.8162,1.8177,1.8233,1.8256,1.8296,1.8316,1.8342,1.8367,1.8417,1.8448,1.8468,1.8499,1.8539,1.8574,1.8582,1.8595,1.8599,1.8608,1.8577,1.8574,1.8571,1.8562,1.8602,1.8602,1.8637,1.8638,1.8638]}]]